Year,Month,Day,Hour,Minute,Value (Times are PST for temperature in C)
2015,06,07,00,00,17.40
2015,06,07,00,01,17.40
2015,06,07,00,02,17.40
2015,06,07,00,03,17.50
2015,06,07,00,04,17.50
2015,06,07,00,05,17.50
2015,06,07,00,06,17.50
2015,06,07,00,07,17.50
2015,06,07,00,08,17.50
2015,06,07,00,09,17.50
2015,06,07,00,10,17.50
2015,06,07,00,11,17.40
2015,06,07,00,12,17.40
2015,06,07,00,13,17.40
2015,06,07,00,14,17.40
2015,06,07,00,15,17.40
2015,06,07,00,16,17.40
2015,06,07,00,17,17.40
2015,06,07,00,18,17.40
2015,06,07,00,19,17.40
2015,06,07,00,20,17.40
2015,06,07,00,21,17.40
2015,06,07,00,22,17.40
2015,06,07,00,23,17.40
2015,06,07,00,24,17.40
2015,06,07,00,25,17.40
2015,06,07,00,26,17.40
2015,06,07,00,27,17.40
2015,06,07,00,28,17.40
2015,06,07,00,29,17.50
2015,06,07,00,30,17.50
2015,06,07,00,31,17.60
2015,06,07,00,32,17.60
2015,06,07,00,33,17.60
2015,06,07,00,34,17.60
2015,06,07,00,35,17.70
2015,06,07,00,36,17.70
2015,06,07,00,37,17.70
2015,06,07,00,38,17.70
2015,06,07,00,39,17.70
2015,06,07,00,40,17.70
2015,06,07,00,41,17.70
2015,06,07,00,42,17.60
2015,06,07,00,43,17.60
2015,06,07,00,44,17.60
2015,06,07,00,45,17.60
2015,06,07,00,46,17.60
2015,06,07,00,47,17.60
2015,06,07,00,48,17.60
2015,06,07,00,49,17.60
2015,06,07,00,50,17.60
2015,06,07,00,51,17.50
2015,06,07,00,52,17.50
2015,06,07,00,53,17.50
2015,06,07,00,54,17.50
2015,06,07,00,55,17.50
2015,06,07,00,56,17.40
2015,06,07,00,57,17.40
2015,06,07,00,58,17.40
2015,06,07,00,59,17.40
2015,06,07,01,00,17.40
2015,06,07,01,01,17.40
2015,06,07,01,02,17.40
2015,06,07,01,03,17.40
2015,06,07,01,04,17.40
2015,06,07,01,05,17.40
2015,06,07,01,06,17.40
2015,06,07,01,07,17.40
2015,06,07,01,08,17.40
2015,06,07,01,09,17.40
2015,06,07,01,10,17.40
2015,06,07,01,11,17.40
2015,06,07,01,12,17.40
2015,06,07,01,13,17.40
2015,06,07,01,14,17.40
2015,06,07,01,15,17.40
2015,06,07,01,16,17.40
2015,06,07,01,17,17.40
2015,06,07,01,18,17.40
2015,06,07,01,19,17.30
2015,06,07,01,20,17.30
2015,06,07,01,21,17.30
2015,06,07,01,22,17.30
2015,06,07,01,23,17.30
2015,06,07,01,24,17.30
2015,06,07,01,25,17.30
2015,06,07,01,26,17.20
2015,06,07,01,27,17.20
2015,06,07,01,28,17.20
2015,06,07,01,29,17.20
2015,06,07,01,30,17.10
2015,06,07,01,31,17.10
2015,06,07,01,32,17.10
2015,06,07,01,33,17.00
2015,06,07,01,34,17.00
2015,06,07,01,35,16.90
2015,06,07,01,36,16.90
2015,06,07,01,37,16.80
2015,06,07,01,38,16.80
2015,06,07,01,39,16.70
2015,06,07,01,40,16.70
2015,06,07,01,41,16.70
2015,06,07,01,42,16.60
2015,06,07,01,43,16.60
2015,06,07,01,44,16.60
2015,06,07,01,45,16.50
2015,06,07,01,46,16.40
2015,06,07,01,47,16.40
2015,06,07,01,48,16.30
2015,06,07,01,49,16.30
2015,06,07,01,50,16.20
2015,06,07,01,51,16.10
2015,06,07,01,52,16.00
2015,06,07,01,53,15.90
2015,06,07,01,54,15.80
2015,06,07,01,55,15.80
2015,06,07,01,56,15.70
2015,06,07,01,57,15.60
2015,06,07,01,58,15.50
2015,06,07,01,59,15.40
2015,06,07,02,00,15.30
2015,06,07,02,01,15.20
2015,06,07,02,02,15.10
2015,06,07,02,03,15.00
2015,06,07,02,04,14.90
2015,06,07,02,05,14.80
2015,06,07,02,06,14.70
2015,06,07,02,07,14.60
2015,06,07,02,08,14.50
2015,06,07,02,09,14.40
2015,06,07,02,10,14.30
2015,06,07,02,11,14.20
2015,06,07,02,12,14.10
2015,06,07,02,13,14.00
2015,06,07,02,14,13.90
2015,06,07,02,15,13.90
2015,06,07,02,16,13.80
2015,06,07,02,17,13.80
2015,06,07,02,18,13.70
2015,06,07,02,19,13.70
2015,06,07,02,20,13.70
2015,06,07,02,21,13.60
2015,06,07,02,22,13.60
2015,06,07,02,23,13.50
2015,06,07,02,24,13.50
2015,06,07,02,25,13.40
2015,06,07,02,26,13.40
2015,06,07,02,27,13.30
2015,06,07,02,28,13.30
2015,06,07,02,29,13.20
2015,06,07,02,30,13.20
2015,06,07,02,31,13.10
2015,06,07,02,32,13.10
2015,06,07,02,33,13.10
2015,06,07,02,34,13.00
2015,06,07,02,35,13.00
2015,06,07,02,36,13.00
2015,06,07,02,37,13.00
2015,06,07,02,38,13.00
2015,06,07,02,39,13.00
2015,06,07,02,40,13.00
2015,06,07,02,41,13.00
2015,06,07,02,42,13.00
2015,06,07,02,43,13.00
2015,06,07,02,44,13.00
2015,06,07,02,45,13.10
2015,06,07,02,46,13.10
2015,06,07,02,47,13.10
2015,06,07,02,48,13.10
2015,06,07,02,49,13.10
2015,06,07,02,50,13.10
2015,06,07,02,51,13.10
2015,06,07,02,52,13.10
2015,06,07,02,53,13.10
2015,06,07,02,54,13.10
2015,06,07,02,55,13.00
2015,06,07,02,56,13.00
2015,06,07,02,57,13.00
2015,06,07,02,58,12.90
2015,06,07,02,59,12.90
2015,06,07,03,00,12.90
2015,06,07,03,01,12.90
2015,06,07,03,02,12.90
2015,06,07,03,03,12.90
2015,06,07,03,04,12.90
2015,06,07,03,05,12.90
2015,06,07,03,06,12.90
2015,06,07,03,07,12.90
2015,06,07,03,08,12.90
2015,06,07,03,09,12.90
2015,06,07,03,10,12.90
2015,06,07,03,11,12.90
2015,06,07,03,12,12.90
2015,06,07,03,13,12.90
2015,06,07,03,14,12.90
2015,06,07,03,15,12.90
2015,06,07,03,16,12.90
2015,06,07,03,17,12.90
2015,06,07,03,18,12.90
2015,06,07,03,19,12.90
2015,06,07,03,20,12.90
2015,06,07,03,21,12.90
2015,06,07,03,22,12.90
2015,06,07,03,23,12.90
2015,06,07,03,24,12.90
2015,06,07,03,25,12.90
2015,06,07,03,26,12.90
2015,06,07,03,27,12.90
2015,06,07,03,28,12.90
2015,06,07,03,29,12.90
2015,06,07,03,30,12.90
2015,06,07,03,31,13.00
2015,06,07,03,32,13.00
2015,06,07,03,33,13.00
2015,06,07,03,34,13.00
2015,06,07,03,35,13.00
2015,06,07,03,36,13.00
2015,06,07,03,37,13.00
2015,06,07,03,38,13.00
2015,06,07,03,39,13.00
2015,06,07,03,40,13.00
2015,06,07,03,41,13.10
2015,06,07,03,42,13.10
2015,06,07,03,43,13.10
2015,06,07,03,44,13.10
2015,06,07,03,45,13.10
2015,06,07,03,46,13.10
2015,06,07,03,47,13.10
2015,06,07,03,48,13.10
2015,06,07,03,49,13.10
2015,06,07,03,50,13.10
2015,06,07,03,51,13.10
2015,06,07,03,52,13.00
2015,06,07,03,53,13.10
2015,06,07,03,54,13.00
2015,06,07,03,55,13.10
2015,06,07,03,56,13.10
2015,06,07,03,57,13.10
2015,06,07,03,58,13.10
2015,06,07,03,59,13.10
2015,06,07,04,00,13.10
2015,06,07,04,01,13.10
2015,06,07,04,02,13.10
2015,06,07,04,03,13.10
2015,06,07,04,04,13.10
2015,06,07,04,05,13.10
2015,06,07,04,06,13.10
2015,06,07,04,07,13.10
2015,06,07,04,08,13.10
2015,06,07,04,09,13.20
2015,06,07,04,10,13.20
2015,06,07,04,11,13.20
2015,06,07,04,12,13.20
2015,06,07,04,13,13.20
2015,06,07,04,14,13.20
2015,06,07,04,15,13.20
2015,06,07,04,16,13.20
2015,06,07,04,17,13.20
2015,06,07,04,18,13.20
2015,06,07,04,19,13.20
2015,06,07,04,20,13.20
2015,06,07,04,21,13.30
2015,06,07,04,22,13.30
2015,06,07,04,23,13.30
2015,06,07,04,24,13.30
2015,06,07,04,25,13.30
2015,06,07,04,26,13.30
2015,06,07,04,27,13.30
2015,06,07,04,28,13.30
2015,06,07,04,29,13.30
2015,06,07,04,30,13.30
2015,06,07,04,31,13.30
2015,06,07,04,32,13.40
2015,06,07,04,33,13.40
2015,06,07,04,34,13.40
2015,06,07,04,35,13.40
2015,06,07,04,36,13.40
2015,06,07,04,37,13.40
2015,06,07,04,38,13.40
2015,06,07,04,39,13.40
2015,06,07,04,40,13.40
2015,06,07,04,41,13.40
2015,06,07,04,42,13.40
2015,06,07,04,43,13.40
2015,06,07,04,44,13.40
2015,06,07,04,45,13.40
2015,06,07,04,46,13.40
2015,06,07,04,47,13.40
2015,06,07,04,48,13.40
2015,06,07,04,49,13.40
2015,06,07,04,50,13.40
2015,06,07,04,51,13.40
2015,06,07,04,52,13.40
2015,06,07,04,53,13.50
2015,06,07,04,54,13.50
2015,06,07,04,55,13.50
2015,06,07,04,56,13.50
2015,06,07,04,57,13.60
2015,06,07,04,58,13.60
2015,06,07,04,59,13.60
2015,06,07,05,00,13.60
2015,06,07,05,01,13.60
2015,06,07,05,02,13.60
2015,06,07,05,03,13.60
2015,06,07,05,04,13.60
2015,06,07,05,05,13.60
2015,06,07,05,06,13.60
2015,06,07,05,07,13.60
2015,06,07,05,08,13.60
2015,06,07,05,09,13.60
2015,06,07,05,10,13.60
2015,06,07,05,11,13.70
2015,06,07,05,12,13.70
2015,06,07,05,13,13.70
2015,06,07,05,14,13.70
2015,06,07,05,15,13.70
2015,06,07,05,16,13.70
2015,06,07,05,17,13.70
2015,06,07,05,18,13.70
2015,06,07,05,19,13.70
2015,06,07,05,20,13.70
2015,06,07,05,21,13.70
2015,06,07,05,22,13.70
2015,06,07,05,23,13.70
2015,06,07,05,24,13.70
2015,06,07,05,25,13.70
2015,06,07,05,26,13.70
2015,06,07,05,27,13.70
2015,06,07,05,28,13.70
2015,06,07,05,29,13.70
2015,06,07,05,30,13.70
2015,06,07,05,31,13.70
2015,06,07,05,32,13.70
2015,06,07,05,33,13.60
2015,06,07,05,34,13.60
2015,06,07,05,35,13.60
2015,06,07,05,36,13.60
2015,06,07,05,37,13.60
2015,06,07,05,38,13.50
2015,06,07,05,39,13.50
2015,06,07,05,40,13.50
2015,06,07,05,41,13.50
2015,06,07,05,42,13.40
2015,06,07,05,43,13.40
2015,06,07,05,44,13.40
2015,06,07,05,45,13.40
2015,06,07,05,46,13.40
2015,06,07,05,47,13.40
2015,06,07,05,48,13.40
2015,06,07,05,49,13.40
2015,06,07,05,50,13.40
2015,06,07,05,51,13.40
2015,06,07,05,52,13.40
2015,06,07,05,53,13.40
2015,06,07,05,54,13.40
2015,06,07,05,55,13.50
2015,06,07,05,56,13.50
2015,06,07,05,57,13.60
2015,06,07,05,58,13.60
2015,06,07,05,59,13.70
2015,06,07,06,00,13.70
2015,06,07,06,01,13.70
2015,06,07,06,02,13.80
2015,06,07,06,03,13.80
2015,06,07,06,04,13.80
2015,06,07,06,05,13.90
2015,06,07,06,06,13.90
2015,06,07,06,07,13.90
2015,06,07,06,08,14.00
2015,06,07,06,09,14.10
2015,06,07,06,10,14.10
2015,06,07,06,11,14.10
2015,06,07,06,12,14.10
2015,06,07,06,13,14.20
2015,06,07,06,14,14.20
2015,06,07,06,15,14.20
2015,06,07,06,16,14.20
2015,06,07,06,17,14.30
2015,06,07,06,18,14.30
2015,06,07,06,19,14.40
2015,06,07,06,20,14.40
2015,06,07,06,21,14.40
2015,06,07,06,22,14.50
2015,06,07,06,23,14.50
2015,06,07,06,24,14.60
2015,06,07,06,25,14.60
2015,06,07,06,26,14.70
2015,06,07,06,27,14.70
2015,06,07,06,28,14.70
2015,06,07,06,29,14.70
2015,06,07,06,30,14.80
2015,06,07,06,31,14.80
2015,06,07,06,32,14.80
2015,06,07,06,33,14.90
2015,06,07,06,34,14.90
2015,06,07,06,35,15.00
2015,06,07,06,36,15.00
2015,06,07,06,37,15.10
2015,06,07,06,38,15.20
2015,06,07,06,39,15.20
2015,06,07,06,40,15.30
2015,06,07,06,41,15.40
2015,06,07,06,42,15.40
2015,06,07,06,43,15.40
2015,06,07,06,44,15.50
2015,06,07,06,45,15.50
2015,06,07,06,46,15.60
2015,06,07,06,47,15.70
2015,06,07,06,48,15.70
2015,06,07,06,49,15.80
2015,06,07,06,50,15.80
2015,06,07,06,51,15.90
2015,06,07,06,52,15.90
2015,06,07,06,53,16.00
2015,06,07,06,54,16.00
2015,06,07,06,55,16.10
2015,06,07,06,56,16.10
2015,06,07,06,57,16.20
2015,06,07,06,58,16.20
2015,06,07,06,59,16.30
2015,06,07,07,00,16.30
2015,06,07,07,01,16.30
2015,06,07,07,02,16.40
2015,06,07,07,03,16.40
2015,06,07,07,04,16.40
2015,06,07,07,05,16.50
2015,06,07,07,06,16.50
2015,06,07,07,07,16.60
2015,06,07,07,08,16.60
2015,06,07,07,09,16.70
2015,06,07,07,10,16.70
2015,06,07,07,11,16.80
2015,06,07,07,12,16.80
2015,06,07,07,13,16.80
2015,06,07,07,14,16.90
2015,06,07,07,15,17.00
2015,06,07,07,16,17.10
2015,06,07,07,17,17.10
2015,06,07,07,18,17.20
2015,06,07,07,19,17.20
2015,06,07,07,20,17.30
2015,06,07,07,21,17.30
2015,06,07,07,22,17.40
2015,06,07,07,23,17.50
2015,06,07,07,24,17.50
2015,06,07,07,25,17.60
2015,06,07,07,26,17.60
2015,06,07,07,27,17.60
2015,06,07,07,28,17.70
2015,06,07,07,29,17.70
2015,06,07,07,30,17.70
2015,06,07,07,31,17.70
2015,06,07,07,32,17.70
2015,06,07,07,33,17.70
2015,06,07,07,34,17.70
2015,06,07,07,35,17.70
2015,06,07,07,36,17.80
2015,06,07,07,37,17.80
2015,06,07,07,38,17.80
2015,06,07,07,39,17.80
2015,06,07,07,40,17.80
2015,06,07,07,41,17.80
2015,06,07,07,42,17.80
2015,06,07,07,43,17.90
2015,06,07,07,44,17.90
2015,06,07,07,45,18.00
2015,06,07,07,46,18.00
2015,06,07,07,47,18.10
2015,06,07,07,48,18.10
2015,06,07,07,49,18.10
2015,06,07,07,50,18.20
2015,06,07,07,51,18.20
2015,06,07,07,52,18.20
2015,06,07,07,53,18.30
2015,06,07,07,54,18.30
2015,06,07,07,55,18.30
2015,06,07,07,56,18.40
2015,06,07,07,57,18.40
2015,06,07,07,58,18.40
2015,06,07,07,59,18.40
2015,06,07,08,00,18.50
2015,06,07,08,01,18.50
2015,06,07,08,02,18.50
2015,06,07,08,03,18.40
2015,06,07,08,04,18.40
2015,06,07,08,05,18.40
2015,06,07,08,06,18.30
2015,06,07,08,07,18.30
2015,06,07,08,08,18.20
2015,06,07,08,09,18.20
2015,06,07,08,10,18.10
2015,06,07,08,11,18.10
2015,06,07,08,12,18.00
2015,06,07,08,13,18.00
2015,06,07,08,14,17.90
2015,06,07,08,15,17.90
2015,06,07,08,16,17.90
2015,06,07,08,17,17.80
2015,06,07,08,18,17.80
2015,06,07,08,19,17.70
2015,06,07,08,20,17.70
2015,06,07,08,21,17.70
2015,06,07,08,22,17.70
2015,06,07,08,23,17.60
2015,06,07,08,24,17.60
2015,06,07,08,25,17.60
2015,06,07,08,26,17.60
2015,06,07,08,27,17.50
2015,06,07,08,28,17.50
2015,06,07,08,29,17.50
2015,06,07,08,30,17.50
2015,06,07,08,31,17.50
2015,06,07,08,32,17.50
2015,06,07,08,33,17.60
2015,06,07,08,34,17.60
2015,06,07,08,35,17.70
2015,06,07,08,36,17.70
2015,06,07,08,37,17.70
2015,06,07,08,38,17.80
2015,06,07,08,39,17.80
2015,06,07,08,40,17.80
2015,06,07,08,41,17.90
2015,06,07,08,42,17.90
2015,06,07,08,43,18.00
2015,06,07,08,44,18.00
2015,06,07,08,45,18.10
2015,06,07,08,46,18.10
2015,06,07,08,47,18.10
2015,06,07,08,48,18.20
2015,06,07,08,49,18.20
2015,06,07,08,50,18.20
2015,06,07,08,51,18.20
2015,06,07,08,52,18.30
2015,06,07,08,53,18.30
2015,06,07,08,54,18.40
2015,06,07,08,55,18.40
2015,06,07,08,56,18.40
2015,06,07,08,57,18.50
2015,06,07,08,58,18.50
2015,06,07,08,59,18.50
2015,06,07,09,00,18.60
2015,06,07,09,01,18.60
2015,06,07,09,02,18.60
2015,06,07,09,03,18.60
2015,06,07,09,04,18.50
2015,06,07,09,05,18.40
2015,06,07,09,06,18.30
2015,06,07,09,07,18.20
2015,06,07,09,08,18.10
2015,06,07,09,09,18.00
2015,06,07,09,10,18.00
2015,06,07,09,11,17.90
2015,06,07,09,12,17.90
2015,06,07,09,13,17.80
2015,06,07,09,14,17.80
2015,06,07,09,15,17.80
2015,06,07,09,16,17.80
2015,06,07,09,17,17.80
2015,06,07,09,18,17.90
2015,06,07,09,19,17.90
2015,06,07,09,20,17.80
2015,06,07,09,21,17.70
2015,06,07,09,22,17.70
2015,06,07,09,23,17.60
2015,06,07,09,24,17.60
2015,06,07,09,25,17.50
2015,06,07,09,26,17.50
2015,06,07,09,27,17.50
2015,06,07,09,28,17.50
2015,06,07,09,29,17.50
2015,06,07,09,30,17.50
2015,06,07,09,31,17.40
2015,06,07,09,32,17.30
2015,06,07,09,33,17.30
2015,06,07,09,34,17.20
2015,06,07,09,35,17.20
2015,06,07,09,36,17.20
2015,06,07,09,37,17.20
2015,06,07,09,38,17.30
2015,06,07,09,39,17.20
2015,06,07,09,40,17.30
2015,06,07,09,41,17.30
2015,06,07,09,42,17.30
2015,06,07,09,43,17.30
2015,06,07,09,44,17.40
2015,06,07,09,45,17.40
2015,06,07,09,46,17.40
2015,06,07,09,47,17.30
2015,06,07,09,48,17.20
2015,06,07,09,49,17.20
2015,06,07,09,50,17.20
2015,06,07,09,51,17.30
2015,06,07,09,52,17.30
2015,06,07,09,53,17.30
2015,06,07,09,54,17.30
2015,06,07,09,55,17.30
2015,06,07,09,56,17.20
2015,06,07,09,57,17.20
2015,06,07,09,58,17.20
2015,06,07,09,59,17.10
2015,06,07,10,00,17.10
2015,06,07,10,01,17.10
2015,06,07,10,02,17.10
2015,06,07,10,03,17.10
2015,06,07,10,04,17.10
2015,06,07,10,05,17.10
2015,06,07,10,06,17.00
2015,06,07,10,07,17.00
2015,06,07,10,08,17.00
2015,06,07,10,09,16.90
2015,06,07,10,10,16.90
2015,06,07,10,11,16.90
2015,06,07,10,12,16.90
2015,06,07,10,13,16.90
2015,06,07,10,14,17.00
2015,06,07,10,15,17.00
2015,06,07,10,16,17.10
2015,06,07,10,17,17.10
2015,06,07,10,18,17.10
2015,06,07,10,19,17.10
2015,06,07,10,20,17.10
2015,06,07,10,21,17.10
2015,06,07,10,22,17.10
2015,06,07,10,23,17.20
2015,06,07,10,24,17.20
2015,06,07,10,25,17.30
2015,06,07,10,26,17.30
2015,06,07,10,27,17.40
2015,06,07,10,28,17.50
2015,06,07,10,29,17.60
2015,06,07,10,30,17.70
2015,06,07,10,31,17.80
2015,06,07,10,32,17.80
2015,06,07,10,33,17.90
2015,06,07,10,34,18.00
2015,06,07,10,35,18.00
2015,06,07,10,36,18.00
2015,06,07,10,37,18.00
2015,06,07,10,38,17.90
2015,06,07,10,39,18.00
2015,06,07,10,40,17.90
2015,06,07,10,41,17.90
2015,06,07,10,42,17.90
2015,06,07,10,43,17.90
2015,06,07,10,44,17.90
2015,06,07,10,45,18.00
2015,06,07,10,46,18.00
2015,06,07,10,47,17.90
2015,06,07,10,48,17.90
2015,06,07,10,49,17.90
2015,06,07,10,50,17.90
2015,06,07,10,51,17.90
2015,06,07,10,52,17.90
2015,06,07,10,53,17.90
2015,06,07,10,54,17.90
2015,06,07,10,55,17.80
2015,06,07,10,56,17.80
2015,06,07,10,57,17.80
2015,06,07,10,58,17.90
2015,06,07,10,59,18.00
2015,06,07,11,00,18.10
2015,06,07,11,01,18.20
2015,06,07,11,02,18.30
2015,06,07,11,03,18.40
2015,06,07,11,04,18.40
2015,06,07,11,05,18.40
2015,06,07,11,06,18.40
2015,06,07,11,07,18.40
2015,06,07,11,08,18.50
2015,06,07,11,09,18.50
2015,06,07,11,10,18.60
2015,06,07,11,11,18.70
2015,06,07,11,12,18.70
2015,06,07,11,13,18.70
2015,06,07,11,14,18.70
2015,06,07,11,15,18.80
2015,06,07,11,16,18.80
2015,06,07,11,17,18.80
2015,06,07,11,18,18.80
2015,06,07,11,19,18.90
2015,06,07,11,20,18.90
2015,06,07,11,21,18.90
2015,06,07,11,22,18.90
2015,06,07,11,23,18.90
2015,06,07,11,24,19.00
2015,06,07,11,25,19.00
2015,06,07,11,26,19.10
2015,06,07,11,27,19.10
2015,06,07,11,28,19.10
2015,06,07,11,29,19.10
2015,06,07,11,30,19.10
2015,06,07,11,31,19.20
2015,06,07,11,32,19.20
2015,06,07,11,33,19.20
2015,06,07,11,34,19.20
2015,06,07,11,35,19.30
2015,06,07,11,36,19.30
2015,06,07,11,37,19.30
2015,06,07,11,38,19.40
2015,06,07,11,39,19.40
2015,06,07,11,40,19.50
2015,06,07,11,41,19.60
2015,06,07,11,42,19.70
2015,06,07,11,43,19.80
2015,06,07,11,44,19.80
2015,06,07,11,45,19.80
2015,06,07,11,46,19.80
2015,06,07,11,47,19.90
2015,06,07,11,48,20.00
2015,06,07,11,49,20.00
2015,06,07,11,50,20.10
2015,06,07,11,51,20.10
2015,06,07,11,52,20.10
2015,06,07,11,53,20.20
2015,06,07,11,54,20.30
2015,06,07,11,55,20.30
2015,06,07,11,56,20.30
2015,06,07,11,57,20.30
2015,06,07,11,58,20.30
2015,06,07,11,59,20.30
2015,06,07,12,00,20.40
2015,06,07,12,01,20.50
2015,06,07,12,02,20.50
2015,06,07,12,03,20.40
2015,06,07,12,04,20.40
2015,06,07,12,05,20.40
2015,06,07,12,06,20.50
2015,06,07,12,07,20.50
2015,06,07,12,08,20.60
2015,06,07,12,09,20.60
2015,06,07,12,10,20.60
2015,06,07,12,11,20.60
2015,06,07,12,12,20.70
2015,06,07,12,13,20.70
2015,06,07,12,14,20.70
2015,06,07,12,15,20.60
2015,06,07,12,16,20.60
2015,06,07,12,17,20.50
2015,06,07,12,18,20.50
2015,06,07,12,19,20.40
2015,06,07,12,20,20.40
2015,06,07,12,21,20.50
2015,06,07,12,22,20.50
2015,06,07,12,23,20.60
2015,06,07,12,24,20.60
2015,06,07,12,25,20.70
2015,06,07,12,26,20.70
2015,06,07,12,27,20.80
2015,06,07,12,28,20.80
2015,06,07,12,29,20.80
2015,06,07,12,30,20.90
2015,06,07,12,31,20.90
2015,06,07,12,32,21.00
2015,06,07,12,33,21.10
2015,06,07,12,34,21.10
2015,06,07,12,35,21.10
2015,06,07,12,36,21.10
2015,06,07,12,37,21.10
2015,06,07,12,38,21.10
2015,06,07,12,39,21.10
2015,06,07,12,40,21.10
2015,06,07,12,41,21.20
2015,06,07,12,42,21.30
2015,06,07,12,43,21.30
2015,06,07,12,44,21.30
2015,06,07,12,45,21.30
2015,06,07,12,46,21.30
2015,06,07,12,47,21.30
2015,06,07,12,48,21.40
2015,06,07,12,49,21.50
2015,06,07,12,50,21.60
2015,06,07,12,51,21.70
2015,06,07,12,52,21.70
2015,06,07,12,53,21.70
2015,06,07,12,54,21.70
2015,06,07,12,55,21.50
2015,06,07,12,56,21.40
2015,06,07,12,57,21.30
2015,06,07,12,58,21.20
2015,06,07,12,59,21.20
2015,06,07,13,00,21.20
2015,06,07,13,01,21.20
2015,06,07,13,02,21.30
2015,06,07,13,03,21.20
2015,06,07,13,04,21.20
2015,06,07,13,05,21.10
2015,06,07,13,06,21.00
2015,06,07,13,07,20.90
2015,06,07,13,08,20.90
2015,06,07,13,09,20.90
2015,06,07,13,10,20.90
2015,06,07,13,11,21.00
2015,06,07,13,12,21.10
2015,06,07,13,13,21.20
2015,06,07,13,14,21.10
2015,06,07,13,15,21.10
2015,06,07,13,16,21.10
2015,06,07,13,17,21.00
2015,06,07,13,18,21.00
2015,06,07,13,19,21.10
2015,06,07,13,20,21.10
2015,06,07,13,21,21.20
2015,06,07,13,22,21.30
2015,06,07,13,23,21.30
2015,06,07,13,24,21.30
2015,06,07,13,25,21.30
2015,06,07,13,26,21.30
2015,06,07,13,27,21.30
2015,06,07,13,28,21.30
2015,06,07,13,29,21.30
2015,06,07,13,30,21.30
2015,06,07,13,31,21.40
2015,06,07,13,32,21.40
2015,06,07,13,33,21.40
2015,06,07,13,34,21.40
2015,06,07,13,35,21.30
2015,06,07,13,36,21.30
2015,06,07,13,37,21.30
2015,06,07,13,38,21.30
2015,06,07,13,39,21.30
2015,06,07,13,40,21.30
2015,06,07,13,41,21.20
2015,06,07,13,42,21.20
2015,06,07,13,43,21.20
2015,06,07,13,44,21.20
2015,06,07,13,45,21.20
2015,06,07,13,46,21.20
2015,06,07,13,47,21.20
2015,06,07,13,48,21.20
2015,06,07,13,49,21.20
2015,06,07,13,50,21.20
2015,06,07,13,51,21.20
2015,06,07,13,52,21.30
2015,06,07,13,53,21.30
2015,06,07,13,54,21.30
2015,06,07,13,55,21.30
2015,06,07,13,56,21.30
2015,06,07,13,57,21.30
2015,06,07,13,58,21.30
2015,06,07,13,59,21.20
2015,06,07,14,00,21.20
2015,06,07,14,01,21.10
2015,06,07,14,02,21.20
2015,06,07,14,03,21.20
2015,06,07,14,04,21.30
2015,06,07,14,05,21.30
2015,06,07,14,06,21.40
2015,06,07,14,07,21.50
2015,06,07,14,08,21.60
2015,06,07,14,09,21.70
2015,06,07,14,10,21.90
2015,06,07,14,11,22.00
2015,06,07,14,12,22.20
2015,06,07,14,13,22.30
2015,06,07,14,14,22.40
2015,06,07,14,15,22.50
2015,06,07,14,16,22.50
2015,06,07,14,17,22.50
2015,06,07,14,18,22.50
2015,06,07,14,19,22.50
2015,06,07,14,20,22.60
2015,06,07,14,21,22.50
2015,06,07,14,22,22.60
2015,06,07,14,23,22.60
2015,06,07,14,24,22.60
2015,06,07,14,25,22.70
2015,06,07,14,26,22.80
2015,06,07,14,27,22.80
2015,06,07,14,28,22.80
2015,06,07,14,29,22.80
2015,06,07,14,30,22.70
2015,06,07,14,31,22.50
2015,06,07,14,32,22.30
2015,06,07,14,33,21.90
2015,06,07,14,34,21.80
2015,06,07,14,35,21.60
2015,06,07,14,36,21.50
2015,06,07,14,37,21.40
2015,06,07,14,38,21.30
2015,06,07,14,39,21.20
2015,06,07,14,40,21.20
2015,06,07,14,41,21.30
2015,06,07,14,42,21.30
2015,06,07,14,43,21.40
2015,06,07,14,44,21.50
2015,06,07,14,45,21.60
2015,06,07,14,46,21.70
2015,06,07,14,47,21.70
2015,06,07,14,48,21.60
2015,06,07,14,49,21.50
2015,06,07,14,50,21.50
2015,06,07,14,51,21.40
2015,06,07,14,52,21.50
2015,06,07,14,53,21.40
2015,06,07,14,54,21.40
2015,06,07,14,55,21.40
2015,06,07,14,56,21.50
2015,06,07,14,57,21.50
2015,06,07,14,58,21.60
2015,06,07,14,59,21.60
2015,06,07,15,00,21.60
2015,06,07,15,01,21.60
2015,06,07,15,02,21.60
2015,06,07,15,03,21.60
2015,06,07,15,04,21.60
2015,06,07,15,05,21.70
2015,06,07,15,06,21.70
2015,06,07,15,07,21.80
2015,06,07,15,08,21.70
2015,06,07,15,09,21.70
2015,06,07,15,10,21.60
2015,06,07,15,11,21.50
2015,06,07,15,12,21.40
2015,06,07,15,13,21.40
2015,06,07,15,14,21.40
2015,06,07,15,15,21.50
2015,06,07,15,16,21.60
2015,06,07,15,17,21.50
2015,06,07,15,18,21.40
2015,06,07,15,19,21.40
2015,06,07,15,20,21.40
2015,06,07,15,21,21.40
2015,06,07,15,22,21.30
2015,06,07,15,23,21.30
2015,06,07,15,24,21.30
2015,06,07,15,25,21.20
2015,06,07,15,26,21.10
2015,06,07,15,27,21.10
2015,06,07,15,28,21.20
2015,06,07,15,29,21.20
2015,06,07,15,30,21.30
2015,06,07,15,31,21.50
2015,06,07,15,32,21.60
2015,06,07,15,33,21.50
2015,06,07,15,34,21.40
2015,06,07,15,35,21.40
2015,06,07,15,36,21.30
2015,06,07,15,37,21.30
2015,06,07,15,38,21.30
2015,06,07,15,39,21.20
2015,06,07,15,40,21.20
2015,06,07,15,41,21.10
2015,06,07,15,42,21.10
2015,06,07,15,43,21.20
2015,06,07,15,44,21.20
2015,06,07,15,45,21.20
2015,06,07,15,46,21.30
2015,06,07,15,47,21.30
2015,06,07,15,48,21.40
2015,06,07,15,49,21.50
2015,06,07,15,50,21.60
2015,06,07,15,51,21.60
2015,06,07,15,52,21.50
2015,06,07,15,53,21.40
2015,06,07,15,54,21.40
2015,06,07,15,55,21.40
2015,06,07,15,56,21.40
2015,06,07,15,57,21.40
2015,06,07,15,58,21.40
2015,06,07,15,59,21.30
2015,06,07,16,00,21.20
2015,06,07,16,01,21.20
2015,06,07,16,02,21.20
2015,06,07,16,03,21.20
2015,06,07,16,04,21.30
2015,06,07,16,05,21.30
2015,06,07,16,06,21.30
2015,06,07,16,07,21.20
2015,06,07,16,08,21.10
2015,06,07,16,09,20.90
2015,06,07,16,10,20.90
2015,06,07,16,11,20.90
2015,06,07,16,12,21.00
2015,06,07,16,13,21.00
2015,06,07,16,14,21.00
2015,06,07,16,15,21.00
2015,06,07,16,16,21.10
2015,06,07,16,17,21.10
2015,06,07,16,18,21.10
2015,06,07,16,19,21.10
2015,06,07,16,20,21.00
2015,06,07,16,21,20.90
2015,06,07,16,22,20.90
2015,06,07,16,23,20.90
2015,06,07,16,24,20.90
2015,06,07,16,25,20.90
2015,06,07,16,26,20.90
2015,06,07,16,27,20.90
2015,06,07,16,28,20.90
2015,06,07,16,29,21.00
2015,06,07,16,30,21.00
2015,06,07,16,31,21.10
2015,06,07,16,32,21.20
2015,06,07,16,33,21.30
2015,06,07,16,34,21.50
2015,06,07,16,35,21.50
2015,06,07,16,36,21.60
2015,06,07,16,37,21.60
2015,06,07,16,38,21.60
2015,06,07,16,39,21.60
2015,06,07,16,40,21.70
2015,06,07,16,41,21.70
2015,06,07,16,42,21.70
2015,06,07,16,43,21.80
2015,06,07,16,44,21.80
2015,06,07,16,45,21.90
2015,06,07,16,46,21.90
2015,06,07,16,47,22.00
2015,06,07,16,48,22.10
2015,06,07,16,49,22.10
2015,06,07,16,50,22.10
2015,06,07,16,51,22.10
2015,06,07,16,52,22.10
2015,06,07,16,53,22.20
2015,06,07,16,54,22.30
2015,06,07,16,55,22.40
2015,06,07,16,56,22.40
2015,06,07,16,57,22.40
2015,06,07,16,58,22.30
2015,06,07,16,59,22.20
2015,06,07,17,00,22.00
2015,06,07,17,01,21.90
2015,06,07,17,02,21.80
2015,06,07,17,03,21.80
2015,06,07,17,04,21.90
2015,06,07,17,05,21.90
2015,06,07,17,06,22.00
2015,06,07,17,07,21.90
2015,06,07,17,08,21.90
2015,06,07,17,09,21.90
2015,06,07,17,10,21.70
2015,06,07,17,11,21.70
2015,06,07,17,12,21.60
2015,06,07,17,13,21.60
2015,06,07,17,14,21.50
2015,06,07,17,15,21.40
2015,06,07,17,16,21.40
2015,06,07,17,17,21.30
2015,06,07,17,18,21.30
2015,06,07,17,19,21.20